DJ8HS-13 Weather Reports


Display with metric or nautical units.
time (UTC)temp
F
wind
direction
speed
MPH
gust
MPH
rain 1hr
in
rain 24hr
in
rain mn
in
humidity
%
barometer
mb
20260506223928 53 236 2.0 8.0 0.00 0.05 0.05 78
20260506223428 53 305 0.0 0.0 0.00 0.05 0.05 79
20260506222928 53 305 0.0 9.0 0.00 0.05 0.05 79
20260506222428 54 299 2.0 8.0 0.00 0.05 0.05 79
20260506221928 54 322 0.0 4.0 0.00 0.05 0.05 79
20260506221428 54 331 1.0 6.0 0.00 0.05 0.05 79
20260506220928 54 313 1.0 2.0 0.00 0.09 0.05 79
20260506220428 54 268 0.0 3.0 0.00 0.09 0.05 79
20260506215928 54 355 1.0 5.0 0.00 0.09 0.05 79
20260506215428 54 316 1.0 3.0 0.00 0.09 0.05 79
20260506214928 54 317 2.0 3.0 0.00 0.09 0.05 79
20260506214428 54 239 0.0 7.0 0.00 0.09 0.05 79
20260506213928 54 184 2.0 6.0 0.00 0.09 0.05 78
20260506213428 54 305 0.0 2.0 0.00 0.09 0.05 78
20260506212928 54 316 1.0 2.0 0.00 0.09 0.05 78
20260506212428 54 261 0.0 6.0 0.00 0.09 0.05 78
20260506211928 54 323 0.0 7.0 0.00 0.09 0.05 78
20260506211428 55 229 0.0 3.0 0.00 0.09 0.05 78
20260506210928 55 310 1.0 6.0 0.00 0.10 0.05 78
20260506210428 55 18 0.0 3.0 0.00 0.10 0.05 78
20260506205928 55 99 0.0 2.0 0.00 0.10 0.05 78
20260506205428 55 9 1.0 3.0 0.00 0.10 0.05 78
20260506204928 55 330 1.0 4.0 0.00 0.10 0.05 78
20260506204428 55 354 0.0 3.0 0.00 0.10 0.05 78
20260506203928 55 265 0.0 0.0 0.00 0.10 0.05 79
20260506203428 55 265 0.0 6.0 0.00 0.10 0.05 78
20260506202928 55 275 3.0 5.0 0.00 0.10 0.05 78
20260506202428 55 288 0.0 2.0 0.00 0.10 0.05 78
20260506201928 55 315 0.0 4.0 0.00 0.10 0.05 78
20260506201428 55 330 1.0 4.0 0.00 0.10 0.05 78
20260506200928 56 216 1.0 2.0 0.00 0.10 0.05 78
20260506200428 55 268 0.0 7.0 0.00 0.10 0.05 78
20260506195928 56 268 0.0 1.0 0.00 0.10 0.05 77
20260506195428 56 282 0.0 3.0 0.00 0.10 0.05 77
20260506194928 56 357 0.0 2.0 0.00 0.10 0.05 77
20260506194428 56 286 0.0 2.0 0.00 0.10 0.05 77
20260506193928 56 303 0.0 2.0 0.00 0.10 0.05 77
20260506193428 56 11 0.0 3.0 0.00 0.10 0.05 77
20260506192928 57 330 1.0 5.0 0.00 0.10 0.05 77
20260506192428 57 135 0.0 2.0 0.00 0.10 0.05 77
20260506191928 57 285 0.0 3.0 0.00 0.10 0.05 77
20260506191428 57 357 0.0 0.0 0.00 0.10 0.05 77
20260506190928 57 357 0.0 0.0 0.00 0.10 0.05 77
20260506190428 57 357 0.0 0.0 0.00 0.10 0.05 77
20260506185928 57 357 0.0 3.0 0.00 0.10 0.05 77
20260506185428 57 338 0.0 4.0 0.00 0.10 0.05 77
20260506184928 57 30 0.0 5.0 0.00 0.10 0.05 77
20260506184428 57 109 0.0 4.0 0.01 0.10 0.05 77
20260506183928 57 341 1.0 5.0 0.01 0.10 0.05 77
20260506183429 58 32 0.0 4.0 0.01 0.10 0.05 77
20260506182928 58 98 1.0 4.0 0.01 0.10 0.05 77
20260506182428 58 68 2.0 4.0 0.01 0.10 0.05 77
20260506181928 58 5 1.0 3.0 0.01 0.10 0.05 77
20260506181429 58 350 2.0 4.0 0.01 0.10 0.05 77
20260506180929 58 12 0.0 5.0 0.01 0.10 0.05 77
20260506180429 58 185 0.0 7.0 0.01 0.10 0.05 77
20260506175929 59 21 0.0 5.0 0.01 0.10 0.05 77
20260506175429 59 167 2.0 6.0 0.01 0.10 0.05 77
20260506174929 59 343 1.0 5.0 0.02 0.10 0.05 77
20260506174429 59 289 3.0 6.0 0.01 0.09 0.04 76
20260506173929 59 331 2.0 6.0 0.01 0.09 0.04 76
20260506173429 60 12 3.0 5.0 0.01 0.09 0.04 76
20260506172929 60 347 0.0 4.0 0.02 0.09 0.04 76
20260506172429 60 330 3.0 5.0 0.02 0.09 0.04 76
20260506171929 60 344 2.0 7.0 0.02 0.09 0.04 76
20260506171429 60 329 1.0 5.0 0.03 0.09 0.04 76
20260506170929 60 14 1.0 6.0 0.03 0.09 0.04 75
20260506170429 61 292 0.0 4.0 0.04 0.09 0.04 75
20260506165929 61 5 2.0 5.0 0.04 0.09 0.04 75
20260506165429 61 336 1.0 5.0 0.04 0.09 0.04 75
20260506164929 61 39 1.0 6.0 0.03 0.08 0.03 75
20260506164429 61 67 1.0 6.0 0.03 0.08 0.03 75
20260506163929 62 340 3.0 7.0 0.03 0.08 0.03 75
20260506163429 62 279 4.0 5.0 0.03 0.08 0.03 75
20260506162929 62 289 0.0 6.0 0.02 0.07 0.02 75
20260506162429 62 8 1.0 4.0 0.02 0.07 0.02 74
20260506161929 63 26 0.0 4.0 0.02 0.07 0.02 74
20260506161429 63 18 2.0 5.0 0.01 0.06 0.01 72
20260506160929 64 323 1.0 4.0 0.01 0.07 0.01 70
20260506160429 64 246 0.0 5.0 0.00 0.06 0.00 69
20260506155929 64 334 0.0 3.0 0.00 0.06 0.00 69
20260506155429 64 348 2.0 3.0 0.00 0.06 0.00 69
20260506154929 64 270 3.0 3.0 0.00 0.06 0.00 69
20260506154429 64 358 2.0 5.0 0.00 0.06 0.00 68
20260506153929 65 312 1.0 5.0 0.00 0.06 0.00 68
20260506153429 65 5 2.0 5.0 0.00 0.06 0.00 67
20260506152929 65 0 1.0 5.0 0.00 0.06 0.00 67
20260506152429 65 333 2.0 6.0 0.00 0.06 0.00 66
20260506151929 65 295 0.0 7.0 0.00 0.06 0.07 65
20260506151429 65 298 1.0 6.0 0.00 0.06 0.07 63
20260506150929 66 327 4.0 8.0 0.00 0.07 0.07 63
20260506150429 66 278 2.0 5.0 0.00 0.07 0.07 62
20260506145929 66 310 2.0 8.0 0.00 0.07 0.07 62
20260506145429 66 291 3.0 9.0 0.00 0.07 0.07 61
20260506144929 66 11 1.0 6.0 0.00 0.07 0.07 61
20260506144429 67 191 1.0 9.0 0.00 0.07 0.07 60
20260506143929 67 268 2.0 8.0 0.00 0.07 0.07 59
20260506143429 67 182 1.0 9.0 0.00 0.07 0.07 57
20260506142929 68 194 1.0 8.0 0.00 0.07 0.07 56
20260506142429 68 291 2.0 8.0 0.00 0.07 0.07 56
20260506141929 68 296 2.0 5.0 0.00 0.07 0.07 54
20260506141429 68 234 0.0 3.0 0.00 0.07 0.07 54
20260506140929 68 181 0.0 4.0 0.00 0.08 0.07 53
20260506140429 69 267 3.0 5.0 0.00 0.08 0.07 53
20260506135929 69 265 1.0 7.0 0.00 0.08 0.07 52
20260506135429 69 25 0.0 2.0 0.00 0.08 0.07 53
20260506134929 69 230 1.0 5.0 0.00 0.08 0.07 51
20260506134429 70 223 1.0 5.0 0.00 0.08 0.07 51
20260506133929 70 222 3.0 7.0 0.00 0.08 0.07 51
20260506133429 70 181 1.0 3.0 0.00 0.08 0.07 52
20260506132929 69 255 3.0 4.0 0.00 0.08 0.07 52
20260506132429 69 233 1.0 7.0 0.00 0.08 0.07 51
20260506131929 70 261 3.0 7.0 0.00 0.08 0.07 50
20260506131429 70 243 0.0 8.0 0.00 0.08 0.07 51
20260506130929 70 70 1.0 8.0 0.00 0.08 0.07 51
20260506130429 70 251 2.0 7.0 0.00 0.08 0.07 52
20260506125929 70 105 0.0 5.0 0.00 0.08 0.07 52
20260506125429 70 267 1.0 6.0 0.00 0.08 0.07 51
20260506124929 70 258 0.0 5.0 0.00 0.08 0.07 51
20260506124429 70 233 1.0 4.0 0.00 0.08 0.07 50
20260506123929 70 278 0.0 3.0 0.00 0.08 0.07 51
20260506123429 70 215 1.0 6.0 0.00 0.08 0.07 51
20260506122929 70 219 0.0 5.0 0.00 0.08 0.07 51
20260506122429 70 309 2.0 7.0 0.00 0.08 0.07 51
20260506121929 70 181 2.0 4.0 0.00 0.08 0.07 52
20260506121429 70 216 0.0 6.0 0.00 0.08 0.07 50
20260506120929 70 187 0.0 7.0 0.00 0.08 0.07 50
20260506120429 71 143 1.0 6.0 0.00 0.08 0.07 50
20260506115929 71 260 1.0 6.0 0.00 0.08 0.07 49
20260506115429 72 180 1.0 8.0 0.00 0.08 0.07 49
20260506114929 72 220 1.0 5.0 0.00 0.08 0.07 50
20260506114429 71 229 0.0 5.0 0.00 0.08 0.07 50
20260506113929 71 199 3.0 6.0 0.00 0.08 0.07 50
20260506113429 71 85 1.0 8.0 0.00 0.08 0.07 50
20260506112929 71 267 0.0 8.0 0.00 0.08 0.07 49
20260506112429 71 177 2.0 7.0 0.00 0.08 0.07 50
20260506111929 71 255 1.0 6.0 0.00 0.08 0.07 49
20260506111429 71 225 3.0 6.0 0.00 0.08 0.07 51
20260506110929 71 232 0.0 9.0 0.00 0.08 0.07 51
20260506110429 71 215 3.0 6.0 0.00 0.08 0.07 51
20260506105929 71 277 2.0 6.0 0.00 0.08 0.07 51
20260506105429 71 284 2.0 7.0 0.00 0.08 0.07 53
20260506104929 70 244 0.0 6.0 0.00 0.08 0.07 52
20260506104429 70 298 5.0 8.0 0.00 0.08 0.07 51
20260506103930 70 310 2.0 7.0 0.00 0.08 0.07 52
20260506103429 70 234 3.0 7.0 0.00 0.08 0.07 54
20260506102929 69 149 1.0 7.0 0.00 0.08 0.07 53
20260506102429 70 322 0.0 5.0 0.00 0.08 0.07 52
20260506101929 70 230 3.0 8.0 0.00 0.08 0.07 52
20260506101429 70 230 1.0 4.0 0.00 0.08 0.07 52
20260506100929 71 137 3.0 9.0 0.00 0.08 0.07 52
20260506100429 71 198 1.0 7.0 0.00 0.08 0.07 52
20260506095929 71 324 1.0 4.0 0.00 0.08 0.07 52
20260506095429 71 113 2.0 9.0 0.00 0.08 0.07 53
20260506094930 71 177 3.0 8.0 0.00 0.08 0.07 53
20260506094429 70 258 1.0 8.0 0.00 0.08 0.07 56
20260506093929 69 279 1.0 4.0 0.00 0.08 0.07 57
20260506093429 68 158 2.0 6.0 0.00 0.08 0.07 58
20260506092930 67 208 2.0 7.0 0.00 0.08 0.07 58
20260506092430 66 181 2.0 6.0 0.00 0.08 0.07 60
20260506091930 66 202 1.0 6.0 0.00 0.08 0.07 60
20260506091430 65 248 0.0 5.0 0.00 0.08 0.07 60
20260506090930 65 350 1.0 6.0 0.00 0.08 0.07 60
20260506090430 65 174 4.0 8.0 0.00 0.08 0.07 59
20260506085930 65 192 1.0 6.0 0.00 0.08 0.07 61
20260506085430 65 119 0.0 4.0 0.00 0.08 0.07 61
20260506084930 65 203 3.0 6.0 0.00 0.08 0.07 60
20260506084430 65 212 3.0 7.0 0.00 0.08 0.07 60
20260506083930 65 233 3.0 9.0 0.00 0.08 0.07 61
20260506083430 65 275 2.0 9.0 0.00 0.08 0.07 61
20260506082930 65 227 6.0 8.0 0.00 0.08 0.07 61
20260506082430 65 172 1.0 7.0 0.00 0.08 0.07 61
20260506081930 65 302 3.0 12.0 0.00 0.08 0.07 61
20260506081430 65 345 5.0 5.0 0.00 0.08 0.07 63
20260506080930 65 247 1.0 8.0 0.00 0.08 0.07 64
20260506080430 65 236 0.0 7.0 0.00 0.08 0.07 65
20260506073430 65 354 2.0 5.0 0.00 0.08 0.07 65
20260506072930 65 291 2.0 7.0 0.00 0.08 0.07 65
20260506072430 66 219 2.0 7.0 0.00 0.08 0.07 65
20260506071930 66 248 0.0 6.0 0.00 0.08 0.07 66
20260506071430 66 199 2.0 6.0 0.00 0.08 0.07 65
20260506070930 66 184 2.0 5.0 0.00 0.08 0.07 65
20260506070430 66 198 1.0 6.0 0.00 0.08 0.07 65
20260506062430 61 156 0.0 8.0 0.00 0.08 0.07 80
20260506061930 61 144 0.0 4.0 0.00 0.08 0.07 80
20260506061430 61 150 0.0 5.0 0.00 0.08 0.07 80
20260506060930 61 175 0.0 4.0 0.00 0.08 0.07 80
20260506060430 61 229 0.0 7.0 0.00 0.08 0.07 81
20260506050930 56 146 0.0 2.0 0.00 0.08 0.07 88
20260506050430 56 167 0.0 1.0 0.00 0.08 0.07 88
20260506044930 56 140 0.0 0.0 0.00 0.08 0.07 88
20260506044430 56 140 0.0 1.0 0.00 0.08 0.07 88
20260506043930 56 139 0.0 2.0 0.00 0.08 0.07 88
20260506043430 56 158 0.0 0.0 0.00 0.08 0.07 88
20260506042930 56 158 0.0 1.0 0.00 0.08 0.07 88
20260506042430 56 188 0.0 2.0 0.00 0.08 0.07 88
20260506041930 56 195 0.0 0.0 0.00 0.08 0.07 88
20260506041430 56 195 0.0 3.0 0.00 0.08 0.07 88
20260506040930 56 167 0.0 2.0 0.00 0.08 0.07 88
20260506040430 56 171 0.0 1.0 0.00 0.08 0.07 88
20260506035930 56 198 0.0 1.0 0.00 0.08 0.07 88
20260506035430 56 163 0.0 3.0 0.00 0.08 0.07 88
20260506034930 56 165 0.0 3.0 0.00 0.08 0.07 87
20260506034430 56 157 0.0 5.0 0.00 0.08 0.07 87
20260506033930 56 181 3.0 5.0 0.00 0.08 0.07 87
20260506033430 56 180 0.0 0.0 0.00 0.08 0.07 87
20260506032930 56 180 0.0 0.0 0.00 0.08 0.07 87
20260506032430 56 180 0.0 0.0 0.00 0.08 0.07 87
20260506031930 56 180 0.0 0.0 0.00 0.08 0.07 87
20260506031430 56 180 0.0 1.0 0.00 0.08 0.07 87
20260506030930 56 194 0.0 1.0 0.00 0.08 0.07 87
20260506030430 56 135 0.0 0.0 0.00 0.08 0.07 87
20260506025930 56 135 0.0 3.0 0.00 0.08 0.07 87
20260506025430 57 130 0.0 0.0 0.00 0.08 0.07 86
20260506024930 57 130 0.0 1.0 0.00 0.08 0.07 86
20260506024430 57 130 0.0 0.0 0.00 0.08 0.07 86
20260506023930 57 130 0.0 0.0 0.00 0.08 0.07 86
20260506023430 57 130 0.0 0.0 0.00 0.08 0.07 86
20260506022930 57 130 0.0 0.0 0.00 0.08 0.07 86
20260506022430 57 130 0.0 0.0 0.00 0.08 0.07 86
20260506021930 57 130 0.0 0.0 0.00 0.08 0.07 86
20260506021430 57 130 0.0 0.0 0.00 0.08 0.07 86
20260506020930 57 130 0.0 0.0 0.00 0.08 0.07 86
20260506020430 57 130 0.0 0.0 0.00 0.08 0.07 86
20260506015930 57 130 0.0 0.0 0.00 0.08 0.07 86
20260506015430 57 130 0.0 0.0 0.00 0.08 0.07 86
20260506014930 57 130 0.0 0.0 0.00 0.08 0.07 86
20260506014430 57 130 0.0 0.0 0.00 0.08 0.07 86
20260506013931 57 130 0.0 0.0 0.00 0.08 0.07 86
20260506013431 57 130 0.0 0.0 0.00 0.08 0.07 86
20260506012931 57 130 0.0 0.0 0.00 0.08 0.07 86
20260506012431 57 130 0.0 0.0 0.00 0.08 0.07 85
20260506011931 57 130 0.0 0.0 0.00 0.08 0.07 85
20260506011431 57 130 0.0 0.0 0.00 0.08 0.07 85
20260506010931 57 130 0.0 0.0 0.00 0.08 0.07 85
20260506010431 57 130 0.0 0.0 0.00 0.08 0.07 85
20260506005931 57 130 0.0 0.0 0.00 0.08 0.07 85
20260506005431 58 130 0.0 0.0 0.00 0.08 0.07 86
20260506004931 58 130 0.0 0.0 0.00 0.08 0.07 86
20260506004431 58 130 0.0 0.0 0.00 0.08 0.07 86
20260506003931 58 130 0.0 0.0 0.00 0.08 0.07 86
20260506003431 58 130 0.0 0.0 0.00 0.08 0.07 86
20260506002931 58 130 0.0 0.0 0.00 0.08 0.07 87
20260506002431 58 130 0.0 0.0 0.00 0.08 0.07 87
20260506001931 59 130 0.0 0.0 0.00 0.08 0.07 87
20260506001431 59 130 0.0 2.0 0.00 0.08 0.07 87
20260506000931 59 146 0.0 4.0 0.00 0.08 0.07 87
20260506000431 59 168 0.0 0.0 0.01 0.08 0.07 87
20260505235931 59 175 0.0 4.0 0.01 0.08 0.07 87
20260505235431 59 191 3.0 3.0 0.01 0.08 0.07 87
20260505234931 59 181 1.0 4.0 0.01 0.08 0.07 87
20260505234431 59 144 0.0 4.0 0.01 0.08 0.07 87
20260505233931 59 185 2.0 5.0 0.01 0.08 0.07 87
20260505233431 59 188 0.0 4.0 0.01 0.08 0.07 87
20260505232931 59 196 1.0 3.0 0.02 0.08 0.07 87
20260505232431 59 244 2.0 3.0 0.04 0.08 0.07 87
20260505231931 59 160 0.0 1.0 0.04 0.08 0.07 86
20260505231431 59 112 0.0 4.0 0.04 0.08 0.07 86
20260505230931 59 201 2.0 2.0 0.04 0.08 0.07 86
20260505230431 59 158 0.0 2.0 0.03 0.07 0.06 86
20260505225931 59 180 0.0 5.0 0.03 0.07 0.06 86
20260505225431 60 216 0.0 2.0 0.04 0.07 0.06 86
20260505224931 60 206 0.0 3.0 0.04 0.07 0.06 85
20260505224431 60 177 0.0 3.0 0.04 0.07 0.06 85